CAPE
0 0 0 1 1 3 75 169 37 89 36 264 231 234 206 353 481 531 525 347 128 4 0 9 3 0 4 3 0 19 17 16 28 11 2 0 0 4 0 0 0 0 0
0 0 0 0 0 0 87 330 218 131 6 12 84 196 187 281 364 409 344 245 86 13 4 30 18 1 0 0 1 7 28 15 0 0 0 0 0 0 0 0 0 0 0
0 0 0 0 0 0 0 0 349 350 98 11 21 17 194 304 331 422 310 231 161 177 30 19 8 0 0 2 3 0 14 15 0 0 0 0 0 0 0 0 4 18 0
0 0 0 0 0 3 0 0 35 201 318 221 32 45 17 93 418 472 395 428 237 148 87 49 47 3 10 33 21 0 0 0 0 0 0 0 0 0 0 0 0 0 0
0 0 0 0 0 18 0 0 0 0 8 63 174 85 4 4 234 361 411 394 283 221 162 140 161 66 31 19 0 0 0 0 0 0 0 0 0 0 0 0 0 0 0
0 0 0 0 0 1 1 0 0 0 0 0 0 0 0 0 0 0 0 21 58 29 0 0 0 0 0 0 0 0 0 0 0 0 0 0 0 0 0 0 0 0 0
0 0 0 0 0 0 0 0 0 0 0 0 0 0 0 0 0 0 0 0 0 0 0 0 0 0 0 0 0 0 0 0 0 0 7 0 0 0 0 0 0 0 0
0 0 0 0 0 0 0 0 0 0 0 0 0 0 0 0 0 0 0 0 0 0 0 0 0 0 0 0 0 0 0 0 0 0 0 0 0 0 19 6 32 4 2
0 0 0 0 0 0 0 0 0 0 0 0 0 0 0 0 0 0 0 0 0 0 0 0 0 0 0 0 0 0 0 0 0 0 0 0 0 0 0 0 0 0 0
0 0 0 0 0 0 0 0 0 0 0 0 0 0 0 0 0 0 0 0 0 0 0 0 0 0 0 0 0 0 0 0 0 0 0 0 0 0 0 0 0 0 0
0 0 0 0 0 0 0 0 0 0 0 0 0 0 0 0 0 0 0 0 0 0 0 0 0 0 0 0 0 0 0 0 0 0 0 0 0 0 0 0 0 0 0
0 0 0 0 0 0 0 0 0 0 0 0 0 0 0 0 0 0 0 0 0 0 0 0 0 0 0 0 0 0 0 0 0 0 0 0 0 0 0 0 0 0 0
0 0 0 0 0 0 0 0 0 0 0 0 0 0 0 0 0 0 0 0 0 0 0 0 0 0 0 0 0 0 0 0 0 0 0 0 0 0 0 0 0 0 0
0 0 0 0 0 0 0 0 0 0 0 0 0 0 0 0 0 0 0 0 0 0 0 0 0 0 0 0 0 0 0 0 0 0 0 0 0 0 0 0 0 0 0
0 0 0 0 0 0 0 0 0 0 0 0 0 0 0 0 0 0 0 0 0 0 0 0 0 0 0 0 0 0 0 0 0 0 0 0 0 0 0 0 0 0 0
1 0 0 0 0 0 0 0 0 0 0 0 0 0 0 0 0 0 0 0 0 0 0 0 0 0 0 0 0 0 0 0 0 0 0 0 0 0 0 0 0 0 0
27 0 0 0 0 0 0 0 0 0 0 0 0 0 0 0 0 0 0 0 0 0 0 0 0 0 0 0 17 57 0 0 0 0 0 0 0 0 0 0 0 0 0
114 0 0 0 0 0 0 0 0 0 0 0 0 0 0 0 0 0 0 0 0 0 0 0 0 0 12 29 9 0 0 0 0 0 0 0 0 0 0 0 0 0 0
297 7 0 0 0 0 0 0 0 0 0 0 0 0 0 0 0 0 0 0 0 0 0 0 1 21 1 0 0 0 0 0 0 0 0 0 0 0 0 0 0 0 0
254 179 20 0 0 0 0 0 0 0 0 0 0 0 0 0 0 0 0 0 0 0 0 0 1 0 0 0 0 0 0 0 0 0 0 0 0 0 0 0 0 0 0
248 200 82 17 0 0 0 0 0 0 0 0 0 0 0 0 0 0 0 0 0 0 0 0 0 0 0 0 0 0 0 0 0 0 0 0 0 0 0 0 0 0 0
326 283 191 108 101 29 4 0 0 0 0 0 0 0 0 0 0 0 0 0 0 0 0 0 0 0 0 0 0 0 0 0 0 0 0 0 0 0 0 0 0 0 0
315 283 276 168 147 121 46 9 0 1 0 0 0 0 0 1 0 0 0 0 0 0 0 0 0 0 0 0 0 0 0 0 0 0 0 0 0 0 0 0 0 0 0
313 265 215 182 118 81 59 52 0 0 4 0 0 0 0 0 0 0 0 0 0 0 0 0 0 0 0 0 0 0 0 0 0 0 0 0 0 0 0 0 0 0 0
328 270 240 167 106 44 37 36 21 11 0 0 0 0 0 0 0 0 0 0 0 0 0 0 0 0 0 0 0 0 0 0 0 0 0 0 0 0 0 0 0 0 0
196 178 200 180 96 39 34 16 16 0 0 0 0 0 0 0 0 0 0 0 0 0 0 0 0 0 0 0 0 0 0 0 0 0 0 0 0 0 0 0 0 0 0
CIN
0 0 0 -2 -2 -7 -4 -6 -51 -12 -48 -1 -4 -0 -4 -0 -0 -2 -2 -11 -42 -57 -2 -72 -50 0 -40 -44 0 -54 -36 -41 -22 -34 -23 0 0 -1 0 0 0 0 0
0 0 0 -1 0 0 -3 -7 -19 -8 -48 -46 -13 -8 -1 -0 -3 -2 -2 -1 -38 -90 -98 -48 -53 0 0 0 -21 -32 -15 -12 0 0 -0 -0 0 0 0 0 -0 0 0
0 0 0 0 0 0 0 0 -1 -0 -19 -57 -41 -67 -12 -3 -8 -2 -6 -2 -6 -1 -54 -41 -16 0 0 -14 -11 -1 -4 -3 -2 0 0 0 0 0 0 0 -2 -3 0
0 0 0 0 0 -1 0 0 -8 -1 -10 -17 -43 -50 -81 -38 -5 -1 -1 -2 -7 -11 -14 -13 -7 -8 -19 -14 -7 0 0 0 0 0 0 0 0 0 0 0 0 0 0
0 0 0 0 0 -1 -1 0 0 0 -1 -16 -7 -21 -19 -22 -6 -8 -1 -1 -4 -7 -9 -11 -5 -14 -15 -1 0 0 0 0 0 0 0 0 0 0 0 0 0 0 0
0 0 0 0 0 -0 -2 0 0 0 0 0 0 0 0 0 0 0 0 -32 -15 -37 0 0 0 0 0 0 0 0 0 0 0 0 0 0 0 0 0 0 0 0 0
0 0 0 0 0 0 0 0 0 0 0 0 0 0 0 0 0 0 0 0 0 0 0 0 0 0 0 0 0 0 0 0 0 0 -11 0 0 0 0 0 0 0 0
0 0 0 0 0 0 0 0 0 0 0 0 0 0 0 0 0 0 0 0 0 0 0 0 0 0 0 0 0 0 0 0 0 0 0 0 0 0 -48 -59 -107 -83 -51
0 0 0 0 0 0 0 0 0 0 0 0 0 0 0 0 0 0 0 0 0 0 0 0 0 0 0 0 0 0 0 0 0 0 0 0 0 0 0 0 0 0 0
0 0 0 0 0 0 0 0 0 0 0 0 0 0 0 0 0 0 0 0 0 0 0 0 0 0 0 0 0 0 0 0 0 0 0 0 0 0 0 0 0 0 0
0 0 0 0 0 0 0 0 0 0 0 0 0 0 0 0 0 0 0 0 0 0 0 0 0 0 0 0 0 0 0 0 0 0 0 0 0 0 0 0 0 0 0
0 0 0 0 0 0 0 0 0 0 0 0 0 0 0 0 0 0 0 0 0 0 0 0 0 0 0 0 0 0 0 0 0 0 0 0 0 0 0 0 0 0 0
0 0 0 0 0 0 0 0 0 0 0 0 0 0 0 0 0 0 0 0 0 0 0 0 0 0 0 0 0 0 0 0 0 0 0 0 0 0 0 0 0 0 0
0 0 0 0 0 0 0 0 0 0 0 0 0 0 0 0 0 0 0 0 0 0 0 0 0 0 0 0 0 0 0 0 0 0 0 0 -0 0 0 0 0 0 0
0 0 0 0 0 0 0 0 0 0 0 0 0 0 0 0 0 0 0 0 0 0 0 0 0 0 0 0 0 0 0 0 0 0 -3 0 0 0 0 0 0 0 0
-202 0 0 0 0 0 0 0 0 0 0 0 0 0 0 0 0 0 0 0 0 0 0 0 0 0 0 0 0 0 -3 0 -1 0 0 0 0 0 0 0 0 0 0
-256 0 0 0 0 0 0 0 0 0 0 0 0 0 0 0 0 0 0 0 0 0 0 0 0 0 0 0 -61 -25 0 0 0 0 0 0 0 0 0 0 0 0 0
-254 0 0 0 0 0 0 0 0 0 0 0 0 0 0 0 0 0 0 0 0 0 0 0 0 0 -123 -54 -77 0 0 0 0 0 0 0 0 0 0 0 0 0 0
-185 -182 0 0 0 0 0 0 0 0 0 0 0 0 0 0 0 0 0 0 0 0 0 0 -19 -71 -83 0 0 0 0 0 0 0 0 0 0 0 0 0 0 0 0
-172 -219 -246 0 0 0 0 0 0 0 0 0 0 0 0 0 0 0 0 0 0 0 0 0 -38 0 0 0 0 0 0 0 0 0 0 0 0 0 0 0 0 0 0
-120 -177 -253 -248 -8 0 0 0 0 0 0 0 0 0 0 0 0 0 0 0 0 0 0 0 0 0 0 0 0 0 0 0 0 0 0 0 0 0 0 0 0 0 0
-76 -99 -199 -234 -192 -174 -163 0 0 0 0 0 0 0 0 0 0 0 0 0 0 0 0 0 0 0 0 0 0 0 0 0 0 0 0 0 0 0 0 0 0 0 0
-69 -83 -113 -225 -215 -193 -163 -179 -21 -82 0 0 0 0 0 -45 0 0 0 0 0 0 0 0 0 0 0 0 0 0 0 0 0 0 0 0 0 0 0 0 0 0 0
-39 -61 -84 -101 -226 -218 -199 -198 0 0 -23 -0 0 0 0 0 0 0 0 0 0 0 0 0 0 0 0 0 0 0 0 0 0 0 0 0 0 0 0 0 0 0 0
-23 -33 -56 -81 -174 -248 -231 -211 -213 -136 0 0 0 0 0 0 0 0 0 0 0 0 0 0 0 0 0 0 0 0 0 0 0 0 0 0 0 0 0 0 0 0 0
-42 -26 -79 -97 -157 -208 -170 -205 -159 0 0 0 0 0 0 0 0 0 0 0 0 0 0 0 0 0 0 0 0 0 0 0 0 0 0 0 0 0 0 0 0 0 0
Wind_Speed
15 17 18 20 22 23 25 26 27 27 9 21 23 14 10 14 15 17 14 15 10 18 16 12 10 16 24 26 16 11 6 22 5 6 3 3 5 9 7 18 7 7 8
16 16 18 20 21 23 25 27 28 29 3 14 20 19 19 19 18 15 22 8 11 5 24 9 9 20 28 31 35 18 25 2 3 3 3 6 6 5 7 10 7 6 6
18 18 19 20 21 23 24 26 28 30 24 6 3 5 17 28 28 17 8 4 8 23 28 34 36 38 36 24 20 20 8 16 3 5 9 7 6 6 6 10 12 16 13
19 19 21 22 22 24 25 26 27 29 31 17 24 9 9 14 21 12 8 16 25 27 29 32 36 36 35 33 33 32 8 3 3 5 10 8 7 6 7 6 8 12 13
21 21 22 22 23 24 25 27 28 29 30 31 27 23 18 13 10 12 2 10 4 12 17 16 25 22 17 23 5 5 2 4 6 5 8 7 10 7 5 10 13 13 10
20 21 22 23 24 24 25 26 26 28 29 30 28 18 4 5 7 8 3 5 6 2 6 10 13 2 5 2 1 3 15 3 6 7 6 6 7 7 10 10 12 11 13
20 20 23 24 24 26 25 25 25 27 24 24 25 25 21 20 17 17 18 16 13 7 8 21 11 10 7 5 3 3 6 7 9 12 13 11 11 10 11 9 10 15 17
21 21 23 25 25 26 27 27 27 27 27 27 26 25 25 25 23 20 18 22 22 17 20 19 7 12 9 3 6 5 5 8 10 11 12 13 14 14 12 13 19 21 22
20 20 23 26 26 27 27 27 28 27 27 26 26 26 26 25 24 25 22 27 24 21 17 15 7 4 4 7 8 8 9 8 8 10 13 14 16 18 18 19 19 21 26
20 21 24 25 27 27 28 27 27 26 26 26 25 25 25 25 26 26 23 20 4 5 6 8 7 4 6 5 7 9 10 9 10 13 15 16 16 17 19 17 21 27 30
20 21 22 23 24 26 26 25 25 25 23 24 22 22 22 20 21 23 26 18 16 14 6 3 4 5 7 6 10 10 11 15 13 15 15 16 16 16 16 17 20 25 29
21 20 20 20 22 20 20 20 21 23 21 23 21 21 22 22 19 22 24 15 7 9 6 5 5 7 7 8 11 13 15 16 14 15 18 20 21 22 23 25 25 26 27
19 18 17 17 23 18 20 20 21 22 22 22 21 21 19 18 17 18 21 17 9 7 8 7 7 6 6 8 8 10 13 14 17 20 23 25 25 25 28 28 28 30 31
20 13 12 12 14 12 16 17 19 17 18 16 16 16 16 16 16 15 16 14 11 5 6 7 6 7 6 9 10 11 13 15 19 24 26 27 28 29 30 32 35 37 39
14 11 8 9 9 6 10 11 14 13 15 13 12 12 11 12 13 13 13 11 9 6 3 4 6 7 9 11 12 12 12 14 19 24 26 28 30 32 31 31 34 34 34
13 12 11 9 8 6 6 4 5 3 9 2 5 3 6 5 8 8 9 6 5 2 1 4 6 8 10 12 12 13 15 19 23 24 24 27 28 32 34 35 34 33 35
14 12 10 12 11 11 9 9 7 9 6 6 7 8 7 3 3 6 5 1 1 1 3 5 6 8 10 12 14 16 17 21 22 23 25 28 31 33 34 33 32 33 35
14 12 11 11 11 10 10 10 9 8 9 9 9 8 4 2 3 3 3 2 6 6 7 11 10 11 10 11 13 15 17 20 21 24 27 29 28 28 30 32 33 35 37
15 15 14 11 12 11 11 11 10 9 8 9 8 10 9 7 6 5 5 7 8 9 8 7 8 8 11 14 14 14 17 19 23 24 24 26 28 28 29 31 33 35 37
15 16 15 15 12 13 13 12 11 10 9 9 10 10 10 11 12 11 9 10 10 9 7 7 9 9 10 10 13 16 18 20 20 22 24 25 25 27 30 32 34 36 38
15 15 18 17 19 15 16 14 13 11 11 10 9 9 8 11 11 10 9 8 7 7 6 6 6 7 9 11 13 15 17 19 20 22 21 23 25 28 29 31 33 35 38
16 16 15 20 22 22 18 18 17 15 14 14 11 7 9 6 5 6 6 6 4 3 3 4 5 7 8 10 13 13 17 17 17 18 21 24 26 28 29 31 34 37 38
15 16 17 17 25 25 23 20 19 19 14 12 10 9 8 7 5 4 3 4 3 3 3 5 6 7 9 11 14 13 11 13 16 19 21 23 25 28 29 32 36 39 40
14 15 17 18 19 21 22 20 19 19 21 12 12 11 9 5 4 3 3 1 1 3 5 6 8 9 11 12 11 11 13 15 17 19 20 23 26 28 30 33 37 39 39
20 14 14 11 16 19 19 18 18 16 16 13 9 9 8 8 5 4 2 2 3 3 4 6 8 8 8 8 9 11 14 17 20 21 21 23 27 29 32 35 36 37 38
21 16 14 13 15 13 15 15 15 14 13 12 10 9 9 9 8 6 4 3 2 2 4 7 6 5 6 8 9 12 15 18 20 22 22 24 27 30 33 34 35 36 38
Wind_Direction
74 78 90 71 78 86 83 62 75 73 190 159 155 181 180 179 182 179 185 190 201 205 211 237 240 206 196 191 196 188 222 221 280 268 359 53 69 88 74 159 52 63 102
93 73 90 85 90 94 96 76 84 92 179 184 168 175 175 172 184 189 181 200 195 189 178 211 198 196 189 191 180 214 208 38 54 70 338 68 71 11 67 103 49 34 102
108 96 100 99 97 96 118 86 102 102 136 182 187 181 182 150 159 186 193 130 194 106 119 146 153 163 172 202 215 225 263 236 44 61 82 75 60 40 43 322 323 307 329
119 108 110 110 106 114 111 96 93 107 107 149 145 174 186 185 173 187 75 82 102 110 115 126 147 143 171 171 169 177 246 35 25 54 89 73 53 9 62 63 8 329 330
128 125 121 116 115 116 113 112 115 110 108 117 134 155 169 180 194 190 104 73 138 87 94 99 182 192 201 199 90 93 46 45 71 34 72 63 97 56 39 339 329 334 342
119 121 128 124 124 117 118 117 111 121 114 119 139 165 192 190 190 188 173 76 75 148 204 203 201 164 220 267 65 267 229 10 56 57 20 34 24 6 346 344 342 348 340
123 114 129 134 129 133 125 119 115 145 163 158 153 151 167 175 180 178 179 183 189 194 197 182 201 212 228 249 289 336 281 289 300 288 307 341 350 353 348 356 347 334 332
133 126 132 141 138 138 142 140 140 146 145 149 158 163 164 166 172 184 187 174 178 197 191 194 235 222 240 297 50 23 348 315 312 327 334 337 342 345 350 345 333 328 327
137 132 136 147 144 147 148 147 152 150 147 147 150 155 161 177 184 180 185 135 117 181 210 217 247 12 322 285 61 61 57 26 14 354 343 344 341 339 339 338 333 330 327
144 141 143 147 151 150 156 152 154 154 155 156 152 155 158 152 160 180 198 198 289 295 279 271 275 5 51 5 27 48 50 33 3 352 346 343 343 339 336 334 330 325 325
147 144 143 143 145 150 150 149 149 152 143 156 141 142 141 131 135 140 160 203 106 100 63 22 347 35 61 18 328 339 2 341 359 353 351 348 346 344 342 339 337 331 326
149 146 144 138 142 136 136 136 141 148 143 151 143 143 144 143 126 140 148 112 291 76 50 358 15 61 41 9 344 343 346 346 354 351 346 342 339 338 338 339 338 335 331
152 147 142 138 148 134 139 138 143 146 148 148 148 148 142 136 131 138 144 130 90 357 357 8 44 37 18 358 3 357 352 351 345 340 338 336 337 340 337 334 335 334 331
159 152 145 143 140 133 138 139 142 139 143 138 138 139 137 135 136 135 142 138 129 62 31 29 18 7 11 351 349 346 340 340 339 336 335 336 336 336 338 339 333 332 331
170 173 176 165 159 157 148 145 147 142 146 139 139 138 138 140 145 141 144 144 144 140 58 12 354 343 338 337 337 338 342 345 341 339 338 338 336 334 335 339 339 337 337
180 188 203 203 201 211 217 207 182 278 163 167 322 147 151 158 154 152 151 149 150 137 347 340 331 327 326 331 334 334 341 341 340 342 343 342 342 337 333 334 336 337 339
186 188 203 223 232 232 235 239 238 262 266 235 283 295 312 254 160 162 166 183 182 161 307 322 321 328 332 336 338 342 342 342 345 345 345 342 342 340 340 343 343 342 343
200 210 220 216 223 223 231 234 241 237 233 238 256 265 266 240 197 190 196 274 296 284 299 311 319 328 334 340 341 341 343 345 346 345 341 341 344 348 347 348 348 348 346
207 209 214 232 231 237 237 239 237 240 236 234 231 254 247 249 252 245 231 276 287 293 301 311 326 334 338 339 345 348 347 346 345 348 352 351 351 353 355 352 350 351 351
222 216 224 230 223 231 241 237 234 235 237 231 225 234 235 251 259 261 260 271 282 289 305 316 327 338 345 353 352 350 351 353 356 356 356 359 360 357 353 353 356 354 353
243 236 225 234 245 240 243 246 242 241 248 234 234 224 217 231 244 251 252 253 270 285 302 318 339 350 353 349 345 349 348 353 353 354 1 1 360 357 359 1 358 356 354
255 253 243 239 250 251 247 248 255 252 258 262 275 210 200 250 254 256 267 280 290 303 318 331 338 344 349 345 349 359 357 357 4 4 3 359 2 7 4 2 360 358 356
262 261 260 252 255 256 257 248 248 256 252 250 258 241 208 253 260 273 293 302 317 328 343 346 346 353 2 359 356 360 14 18 11 4 6 10 11 6 4 2 360 358 357
273 274 271 263 260 257 253 251 241 251 259 239 250 241 236 224 234 261 277 289 12 17 9 12 4 354 358 7 23 18 22 12 14 17 17 13 8 5 4 2 0 360 0
281 275 277 268 272 262 256 256 255 256 248 241 234 227 216 222 227 236 249 291 320 337 15 4 349 352 23 35 30 30 26 25 21 14 11 9 7 7 6 2 2 4 5
279 278 280 276 278 269 258 252 248 243 238 238 235 224 219 233 238 238 228 167 106 24 17 357 10 52 57 54 46 44 33 22 14 10 13 11 10 7 5 6 8 9 7